Temperature
21 21 20 20 18 18 20 21 21 21 21 21 21 20 19 18 18 18 17 17 18 18 18 18 18 18 18 18 18 17 17 17 17 17 17 17 17 17 17 17 17 17 17 17 18 18 18 18 18
21 21 20 20 18 19 20 20 21 22 22 21 21 20 19 18 17 17 17 17 18 18 18 18 17 17 17 17 17 17 17 17 17 17 17 17 17 17 17 17 17 17 17 17 17 18 18 18 18
21 21 20 18 19 19 20 21 21 22 22 22 20 19 19 18 18 17 17 17 18 18 18 17 17 17 17 17 17 17 17 17 17 17 17 17 17 17 17 17 17 17 17 17 17 17 17 17 17
21 21 20 18 20 20 21 21 22 22 22 21 20 19 18 18 18 17 17 18 18 17 17 17 17 17 17 17 17 17 17 17 17 17 16 16 16 16 16 17 17 17 17 17 17 17 17 17 17
21 21 19 19 21 21 21 22 22 21 21 20 19 18 18 18 18 18 17 18 18 17 17 17 17 17 17 17 17 17 17 17 17 16 16 16 16 16 16 16 16 17 17 17 17 17 17 17 17
21 19 18 19 21 21 21 22 22 21 20 20 19 18 17 18 18 18 18 18 18 18 17 17 17 17 17 17 17 17 17 16 16 16 16 16 16 16 16 16 16 16 16 17 17 17 17 17 17
21 18 19 20 20 21 22 22 21 20 20 20 19 18 17 18 18 18 18 18 18 18 17 17 17 17 17 17 17 17 16 16 16 16 16 16 16 16 16 16 16 16 16 16 16 17 17 17 17
22 18 19 19 20 21 22 22 22 21 20 20 20 18 17 18 18 18 18 18 17 17 17 17 17 17 17 17 16 16 16 16 16 16 16 16 16 16 16 16 16 16 16 16 16 16 16 16 16
22 18 19 20 20 21 22 22 21 21 21 20 20 19 19 18 18 18 18 17 17 17 17 17 17 17 17 17 16 16 16 16 16 16 16 16 16 16 16 16 16 16 16 16 16 16 16 16 16
21 18 20 21 21 21 22 22 21 20 19 19 19 19 18 18 18 18 18 18 18 17 17 17 17 17 17 17 17 16 16 16 16 16 16 16 16 16 16 16 16 16 16 16 16 16 16 16 16
21 20 21 22 22 22 22 21 21 20 18 18 18 18 18 18 18 18 18 18 18 18 18 17 17 17 17 17 17 17 16 16 16 16 16 16 16 16 16 16 16 16 16 16 16 16 16 16 16
21 21 22 22 22 22 22 21 21 20 20 20 20 19 18 18 18 18 18 18 18 18 18 18 17 17 17 17 17 17 16 16 16 16 16 16 16 16 16 16 16 16 16 16 16 16 16 16 16
21 21 22 22 22 22 22 21 20 20 20 19 19 19 19 19 18 18 19 18 18 18 18 18 18 17 17 17 17 17 17 17 16 16 16 16 16 16 16 16 16 16 16 16 16 16 16 16 16
22 22 22 22 22 22 21 20 20 19 20 19 19 19 19 19 19 19 19 18 18 18 18 18 18 17 17 17 17 17 17 17 16 16 16 16 16 16 16 16 16 16 16 16 16 16 16 16 16
22 21 21 21 22 21 21 20 19 20 20 19 19 19 19 19 19 19 19 19 19 18 18 18 18 18 17 17 17 17 17 17 16 16 16 16 16 16 16 16 16 16 16 16 16 16 16 16 16
21 20 19 20 21 21 20 19 19 20 20 19 19 19 19 19 19 19 19 19 19 18 18 18 18 17 17 17 17 17 17 16 16 16 16 16 16 16 16 16 16 16 16 16 16 16 16 16 16
19 18 19 20 21 21 20 19 19 20 20 19 19 19 19 19 19 19 19 19 19 18 18 18 18 17 17 17 17 17 16 16 16 16 16 16 16 16 16 16 16 16 16 16 16 16 16 16 16
18 18 19 19 20 20 19 19 18 19 19 19 19 19 19 19 19 19 19 19 19 18 18 18 18 17 17 17 17 16 16 16 16 16 16 16 16 16 16 16 16 16 16 16 16 16 16 16 16
20 20 19 20 21 20 19 19 18 19 19 18 18 19 19 19 19 19 19 19 19 18 18 18 18 17 17 17 17 16 16 16 16 16 16 16 16 16 16 16 16 15 16 15 15 16 15 15 15
20 19 19 20 21 20 19 19 18 18 18 19 19 19 19 19 19 19 19 19 19 18 18 18 18 17 17 17 16 16 16 16 16 15 15 15 16 16 16 16 15 15 15 15 15 15 15 15 15
20 19 19 20 20 20 19 18 18 18 19 19 19 19 19 19 19 19 19 19 19 18 18 18 18 17 17 17 16 16 16 16 15 15 15 15 15 15 15 15 15 15 15 15 15 15 15 15 15
19 20 20 20 18 17 18 17 17 17 17 18 18 18 19 19 19 19 19 19 19 19 18 18 17 17 17 17 16 16 16 16 15 15 15 15 15 15 15 15 15 15 15 15 15 15 15 15 15
19 20 20 19 18 17 17 17 17 17 17 17 18 18 19 19 19 19 19 19 19 19 18 18 17 17 17 17 16 16 16 16 15 15 15 15 15 15 15 15 15 15 15 15 15 15 15 15 15
20 19 18 16 16 16 17 17 17 16 17 18 18 18 19 19 19 19 19 19 19 18 18 18 18 17 17 17 16 16 16 16 16 15 15 15 15 15 15 15 15 15 15 15 15 15 15 15 15
19 16 16 16 15 16 17 17 17 18 18 19 19 19 19 19 19 19 19 19 19 18 18 18 18 17 17 17 16 16 16 16 16 16 15 15 15 15 15 16 16 15 15 15 15 15 15 15 15
18 17 16 16 16 16 17 17 18 19 20 20 20 19 19 19 19 19 19 19 19 19 18 18 18 17 17 17 17 16 16 16 16 16 16 16 15 15 16 16 15 15 15 15 15 15 15 15 15
18 17 16 16 17 16 16 18 19 19 19 19 19 18 18 18 19 19 19 19 19 19 18 18 18 17 17 17 17 16 16 16 16 16 16 16 16 15 15 15 15 15 15 15 15 15 15 15 15
19 17 15 16 16 16 17 18 17 18 18 18 18 18 18 19 19 19 19 19 19 19 18 18 18 17 17 17 17 17 16 16 16 16 16 16 16 16 16 15 16 15 15 15 15 15 15 15 15
19 18 16 15 15 15 16 17 19 18 18 18 18 19 19 19 19 19 19 19 19 18 18 18 18 17 17 17 17 17 17 16 16 16 16 16 16 16 16 16 16 16 16 15 15 15 15 15 15
19 18 16 16 16 15 15 16 19 19 19 19 19 19 19 19 19 19 19 19 19 18 18 18 18 18 17 17 17 17 17 16 16 16 16 16 16 16 16 16 16 16 16 15 15 15 15 15 15
Wind_Speed
6 4 2 3 4 4 2 2 2 3 4 5 9 10 8 6 4 5 2 6 9 7 8 10 11 11 11 12 12 12 12 12 12 11 11 11 11 11 11 11 11 10 10 9 9 9 8 7 7
3 1 3 3 4 3 1 0 4 4 7 8 8 8 7 6 5 6 4 8 9 9 9 10 12 12 12 12 12 12 12 12 12 11 11 10 10 10 10 10 10 9 8 8 7 7 7 6 6
2 1 3 3 3 3 3 3 4 5 7 5 6 6 5 4 4 4 6 9 9 8 9 11 12 13 13 12 12 12 12 11 11 10 10 10 10 9 9 9 9 8 7 7 6 6 5 5 5
2 4 4 4 2 1 5 5 5 7 6 6 6 6 4 3 4 7 10 10 10 7 9 11 12 13 13 13 12 12 12 11 11 10 9 9 9 9 8 8 8 7 6 5 5 4 4 4 5
3 4 4 3 1 0 2 3 5 7 5 5 7 6 4 3 10 12 10 10 10 7 8 11 13 13 13 12 12 12 12 11 10 10 9 8 8 8 7 7 7 6 6 5 4 4 4 4 4
4 4 4 1 1 1 1 3 6 9 7 7 8 7 3 4 9 10 10 9 9 8 8 10 12 13 12 12 11 11 10 10 10 9 8 8 8 7 7 6 6 5 5 4 4 3 3 3 4
4 3 2 2 2 1 2 3 6 7 6 5 6 6 4 4 7 9 10 9 8 8 7 7 9 11 12 11 11 10 9 9 8 7 7 7 6 6 5 5 5 4 4 3 3 2 2 3 4
5 4 2 1 3 1 1 4 5 7 5 5 5 8 6 7 8 10 9 9 7 6 5 6 6 7 8 9 9 9 9 8 7 6 5 5 4 4 4 3 3 3 2 2 2 2 2 3 4
4 4 1 1 3 3 3 5 4 5 6 4 4 5 9 11 10 10 8 6 6 7 5 5 5 5 6 6 7 7 6 6 5 4 3 3 2 2 2 2 2 1 1 2 2 2 3 4 4
4 3 2 1 4 4 4 5 5 5 7 5 7 8 10 10 10 10 9 8 7 7 7 5 5 6 6 5 5 4 3 2 3 3 3 3 3 4 3 3 2 1 1 2 3 3 4 4 4
3 4 1 2 3 4 4 3 3 8 5 7 12 13 11 9 9 9 8 8 8 8 8 7 6 6 5 3 4 3 2 2 1 3 3 3 3 2 2 1 1 1 2 2 4 5 4 4 3
2 1 3 2 2 3 3 3 4 4 6 9 13 14 11 10 9 9 8 7 6 6 6 6 6 4 4 4 4 4 3 2 1 2 3 4 3 2 2 1 0 1 1 2 4 4 5 5 5
1 1 2 4 4 4 5 5 5 4 8 10 11 11 10 9 7 6 7 7 7 6 6 6 6 5 4 4 3 4 2 2 2 2 3 5 3 2 2 1 1 1 2 3 3 4 5 6 6
2 3 3 3 4 3 6 4 5 5 10 11 11 9 9 9 8 7 7 7 7 6 6 6 6 5 5 4 3 3 4 4 5 5 4 5 5 4 3 2 2 2 4 5 4 4 4 4 5
3 3 3 1 2 2 6 3 3 8 10 11 10 9 8 7 8 9 9 8 8 7 7 7 6 6 6 5 4 5 5 6 6 6 7 8 8 7 5 3 2 3 5 7 6 6 6 4 5
3 3 1 3 3 4 7 4 5 8 10 10 9 8 7 6 7 8 9 8 7 7 7 7 8 7 7 6 5 5 6 7 7 8 9 9 9 9 7 4 3 5 7 6 4 4 5 5 5
2 1 3 4 4 4 5 5 6 8 10 10 9 9 8 6 5 6 7 8 8 8 8 8 8 7 7 6 6 7 7 7 7 8 8 9 9 9 8 5 4 6 6 4 4 4 4 4 4
4 3 3 5 4 5 5 5 7 8 10 10 9 8 9 9 8 7 7 8 9 8 8 8 7 7 7 6 6 5 5 4 6 7 7 8 8 9 9 6 6 7 5 4 4 5 4 4 4
3 2 3 4 4 5 6 6 8 8 9 10 9 9 9 9 6 7 8 9 9 8 8 8 7 6 6 4 4 4 3 2 3 4 7 8 8 8 8 5 5 5 4 4 4 4 5 4 3
3 1 2 2 1 4 5 6 7 9 11 13 14 13 11 9 7 7 8 8 9 9 7 7 7 7 6 4 4 3 3 2 2 3 6 7 8 7 6 5 3 4 4 5 4 4 3 2 2
1 3 3 2 2 2 2 3 3 5 5 8 11 11 12 13 12 10 9 8 9 9 9 8 7 7 6 6 5 4 4 4 3 3 3 4 7 7 6 6 5 4 4 3 3 4 4 2 2
2 3 2 2 2 2 2 3 6 6 7 8 11 11 12 13 12 11 10 9 10 9 9 9 8 7 7 7 7 7 5 3 2 1 1 3 5 6 6 6 6 4 3 3 2 3 3 3 1
4 2 1 2 2 1 1 2 6 4 8 11 12 13 13 13 14 13 12 11 9 9 9 8 8 7 7 7 8 7 5 3 2 2 3 3 4 5 6 6 6 4 3 3 3 3 3 3 3
3 4 5 5 4 2 5 5 6 6 11 12 13 14 14 13 13 12 11 9 8 9 9 9 9 7 7 7 7 8 7 5 4 3 3 2 2 3 4 5 5 4 3 3 3 3 4 3 3
5 5 3 4 2 5 4 4 8 8 10 14 15 15 14 13 12 12 11 10 10 11 10 9 9 8 7 7 7 7 7 7 6 5 4 3 2 1 1 3 3 3 3 4 4 4 4 3 4
4 7 5 4 4 4 3 4 6 6 6 8 10 12 13 14 12 12 13 12 12 12 11 10 10 8 7 7 6 6 6 5 4 5 5 4 3 2 2 3 3 4 4 5 5 4 3 4 4
5 4 6 4 2 2 4 4 5 3 3 5 8 10 13 14 14 14 13 12 12 12 11 11 10 8 8 7 6 6 6 5 5 5 4 4 3 2 3 4 3 3 4 5 5 4 4 4 4
6 6 5 4 2 2 4 4 3 3 2 6 8 10 12 13 14 13 12 12 12 11 10 11 11 9 7 8 7 6 6 6 6 5 5 4 3 3 4 4 3 3 4 4 5 4 3 5 4
3 3 4 4 4 3 2 6 5 6 6 7 9 10 12 14 14 13 12 12 11 10 10 10 9 8 8 8 7 7 6 5 6 5 5 5 4 5 5 4 4 4 4 4 4 4 4 5 4
6 6 6 5 3 4 3 6 7 4 5 7 8 9 9 11 12 12 12 11 10 11 11 10 10 9 9 8 7 7 6 6 5 5 4 4 5 5 5 4 4 4 4 4 5 4 4 5 4
Wind_Direction
327 341 93 73 58 57 40 357 102 81 66 61 74 83 83 61 80 127 148 129 127 124 117 115 116 116 114 112 110 108 107 105 104 102 101 100 98 96 93 94 90 87 85 82 79 79 77 74 68
332 6 74 66 79 79 38 252 92 93 127 120 79 75 77 74 80 105 112 126 122 120 116 117 118 116 115 113 112 110 109 107 106 103 101 100 99 98 96 93 90 86 83 81 78 76 75 69 61
317 141 86 71 92 151 161 184 129 94 106 100 80 57 68 93 100 107 129 127 117 113 116 122 119 116 114 113 112 111 111 108 108 107 105 102 100 100 98 94 92 89 86 83 79 75 72 65 53
59 49 56 69 79 195 167 186 142 114 85 67 99 72 57 63 108 123 129 127 121 118 122 125 124 120 117 116 115 114 113 112 110 109 109 107 103 101 100 97 94 91 86 85 83 76 68 61 50
73 74 58 46 58 139 160 157 121 105 89 79 94 90 64 47 109 125 131 132 129 129 128 129 127 127 125 122 119 117 117 115 113 111 109 111 109 107 103 102 100 95 89 88 85 79 69 58 47
55 68 80 83 111 95 103 114 101 93 105 105 101 104 98 119 124 136 139 137 136 136 136 134 131 130 128 126 124 123 122 120 117 115 113 113 114 114 112 107 103 99 94 89 85 76 66 43 31
105 92 131 167 145 111 131 102 104 115 117 123 122 106 126 146 146 144 140 135 134 136 136 135 135 132 132 131 131 131 131 128 125 124 123 124 124 125 124 119 113 106 96 86 77 60 37 29 32
129 100 56 111 138 161 126 94 104 110 108 121 115 131 156 178 151 137 135 134 135 137 140 141 142 142 142 142 143 141 140 140 139 138 139 142 145 145 149 143 130 115 96 72 54 19 7 15 29
92 75 53 205 156 160 119 102 82 78 99 87 88 131 154 154 137 128 127 132 146 151 159 161 163 164 159 159 159 151 147 149 151 159 171 175 166 179 199 194 176 154 84 34 22 12 8 9 19
93 123 232 214 159 151 123 111 123 95 88 86 92 110 134 140 138 140 143 150 158 165 176 180 181 186 184 179 165 158 149 161 166 179 199 206 210 219 217 221 230 256 334 1 2 355 359 5 15
149 177 200 57 99 122 116 108 104 120 118 153 146 149 152 149 150 154 159 162 165 166 171 180 187 189 186 186 166 168 167 170 190 202 190 181 183 200 202 211 278 312 354 11 15 19 17 26 41
147 158 121 107 85 105 115 115 91 121 164 163 154 154 158 161 165 167 167 169 158 151 161 169 178 175 171 162 157 158 163 160 150 187 180 150 128 127 146 151 269 354 33 48 38 38 46 57 73
105 158 113 118 109 106 108 113 110 114 134 143 145 149 157 162 162 171 166 160 146 142 147 155 155 149 141 127 136 137 140 115 92 89 147 147 135 133 130 122 93 74 81 86 80 67 61 60 71
144 113 105 128 126 116 116 108 105 147 145 147 151 158 164 165 166 165 161 154 148 147 147 144 135 130 121 114 113 118 112 93 76 70 91 121 123 119 111 89 80 79 91 94 93 84 73 63 70
107 76 24 359 153 152 110 78 155 163 152 153 159 163 164 171 164 167 167 160 154 147 137 134 128 116 112 112 112 106 95 82 68 64 78 98 106 106 103 90 75 83 97 95 86 76 72 71 68
65 62 319 273 187 170 128 188 204 165 151 157 162 162 159 171 171 171 167 158 152 137 131 134 125 112 109 108 102 96 85 77 68 68 75 87 94 94 87 76 69 87 87 85 83 74 75 66 64
34 191 235 263 212 170 149 196 205 176 161 164 166 169 168 173 175 169 166 157 148 137 130 123 119 115 109 101 92 87 83 74 69 68 70 80 88 90 88 80 78 87 79 71 81 73 84 80 72
226 219 233 229 220 168 172 205 195 184 170 171 171 174 170 171 182 168 158 147 138 134 131 128 122 116 108 97 87 75 64 58 62 64 67 77 84 89 88 82 80 85 79 68 75 80 70 80 86
217 232 258 242 212 173 193 204 197 187 175 176 181 181 176 179 180 156 152 143 134 135 134 134 128 126 118 110 105 97 82 62 52 57 69 76 80 84 86 86 77 80 87 94 96 93 76 66 87
217 231 289 301 232 171 195 220 204 193 191 187 185 185 181 174 165 157 153 150 147 148 146 140 139 136 131 131 131 129 121 95 75 53 57 67 75 81 94 97 92 89 89 78 84 98 96 65 66
233 204 221 217 1 23 118 303 242 224 201 192 191 189 180 176 172 169 164 162 156 153 156 153 148 138 136 130 113 94 71 53 45 45 39 44 69 79 92 103 102 97 99 102 100 112 116 114 31
242 254 204 166 119 263 163 245 262 217 207 199 194 190 188 183 176 173 171 171 170 165 158 148 147 139 139 132 128 130 129 134 168 144 81 50 63 73 84 97 100 98 101 109 113 114 119 126 114
201 222 103 157 144 304 256 203 271 194 206 212 202 196 192 187 180 176 176 176 172 161 150 151 146 141 142 139 138 134 136 151 142 102 89 62 44 59 77 90 94 92 93 104 101 99 105 119 133
145 57 38 44 72 293 233 195 263 215 209 206 203 199 195 188 183 179 175 167 159 151 148 151 149 148 147 142 142 144 149 147 135 128 119 87 52 38 60 84 91 94 93 96 101 100 99 99 105
90 84 36 1 2 257 246 204 247 234 211 201 197 197 191 183 179 176 172 165 159 154 152 155 153 154 154 148 152 157 158 157 158 160 158 145 117 82 70 83 87 88 93 97 95 91 90 93 98
164 141 157 197 229 277 293 232 262 261 207 189 186 181 177 177 179 179 177 171 164 160 157 158 160 161 159 157 165 165 160 157 160 164 163 163 165 169 135 103 96 94 95 97 92 85 86 90 92
148 172 171 151 252 266 281 285 315 8 98 141 156 168 177 180 180 180 174 170 166 166 165 165 165 167 166 165 165 168 166 159 160 160 156 161 166 154 124 114 101 97 97 99 96 85 80 88 85
156 155 108 127 175 270 294 280 253 253 200 168 172 178 181 180 180 178 173 171 169 172 167 167 168 173 171 167 169 170 168 165 159 150 155 165 165 137 129 121 115 104 97 98 93 89 86 87 80
145 142 131 142 164 169 268 278 241 220 207 188 189 189 184 180 180 177 174 174 170 170 167 169 168 164 165 166 164 157 164 161 151 151 158 159 155 150 150 150 135 119 109 103 101 99 96 92 78
167 176 156 158 210 178 187 268 274 227 203 189 186 187 182 182 180 175 174 171 168 173 172 172 169 168 169 164 157 157 159 153 150 154 156 155 156 155 156 150 139 138 130 121 118 116 108 110 106
Height
1521 1521 1521 1522 1524 1531 1534 1528 1521 1521 1521 1522 1522 1523 1526 1530 1533 1540 1538 1536 1537 1538 1538 1538 1538 1538 1539 1539 1539 1539 1539 1539 1540 1540 1540 1540 1541 1541 1541 1541 1541 1542 1542 1542 1542 1543 1543 1543 1543
1521 1521 1522 1522 1529 1540 1536 1526 1523 1521 1522 1522 1524 1526 1528 1532 1533 1535 1536 1537 1538 1538 1538 1538 1539 1539 1539 1539 1539 1539 1539 1540 1540 1540 1540 1541 1541 1541 1541 1541 1542 1542 1542 1542 1542 1543 1543 1544 1544
1521 1521 1522 1523 1530 1537 1533 1525 1522 1521 1521 1522 1526 1528 1531 1534 1535 1535 1537 1538 1538 1539 1539 1539 1539 1539 1539 1539 1539 1539 1540 1540 1540 1540 1540 1541 1541 1541 1541 1541 1541 1542 1542 1542 1542 1543 1543 1544 1544
1521 1522 1522 1527 1530 1526 1524 1522 1520 1521 1523 1524 1526 1531 1534 1536 1536 1536 1538 1539 1539 1539 1539 1539 1540 1540 1540 1540 1540 1540 1540 1540 1540 1540 1540 1541 1541 1541 1541 1541 1542 1542 1542 1542 1543 1543 1544 1544 1544
1520 1521 1526 1532 1528 1523 1520 1519 1519 1520 1524 1526 1527 1532 1536 1537 1537 1537 1539 1540 1539 1540 1540 1540 1540 1540 1540 1540 1540 1540 1540 1540 1541 1541 1541 1541 1541 1542 1542 1542 1542 1542 1542 1543 1543 1543 1544 1544 1545
1521 1522 1533 1536 1529 1523 1520 1520 1520 1523 1526 1528 1529 1533 1537 1539 1538 1539 1540 1540 1541 1541 1541 1541 1541 1541 1541 1541 1541 1541 1541 1541 1542 1542 1542 1542 1542 1543 1543 1543 1543 1543 1543 1543 1543 1544 1544 1545 1545
1522 1525 1531 1531 1530 1526 1521 1520 1521 1523 1526 1528 1529 1533 1537 1539 1540 1540 1541 1541 1542 1542 1542 1542 1542 1542 1542 1542 1542 1542 1542 1543 1543 1543 1544 1544 1544 1544 1544 1544 1544 1544 1544 1544 1544 1545 1545 1545 1546
1520 1525 1529 1530 1529 1526 1521 1521 1523 1524 1527 1529 1529 1532 1536 1538 1540 1541 1542 1543 1543 1543 1544 1544 1544 1544 1544 1544 1544 1544 1544 1544 1545 1545 1545 1545 1545 1546 1546 1546 1546 1546 1546 1546 1546 1546 1546 1547 1547
1521 1528 1533 1528 1527 1525 1521 1522 1524 1525 1527 1528 1529 1531 1534 1537 1540 1541 1542 1543 1544 1544 1545 1545 1545 1545 1546 1545 1546 1546 1546 1546 1546 1546 1547 1547 1547 1547 1547 1547 1547 1547 1547 1547 1547 1547 1548 1548 1549
1521 1530 1526 1521 1521 1521 1521 1522 1524 1527 1528 1530 1531 1533 1535 1538 1540 1541 1542 1543 1544 1544 1545 1546 1547 1547 1547 1547 1547 1547 1547 1548 1548 1548 1548 1548 1548 1548 1548 1549 1549 1549 1549 1549 1549 1549 1549 1549 1550
1520 1524 1521 1520 1520 1521 1521 1523 1524 1526 1530 1530 1530 1533 1536 1538 1540 1541 1542 1543 1544 1545 1546 1547 1547 1548 1548 1548 1548 1549 1549 1549 1549 1549 1549 1549 1549 1549 1549 1550 1550 1550 1550 1550 1550 1550 1550 1551 1551
1520 1519 1519 1520 1520 1521 1522 1523 1525 1525 1528 1529 1530 1532 1535 1538 1540 1541 1542 1543 1544 1545 1546 1547 1548 1548 1549 1549 1550 1550 1550 1550 1550 1550 1550 1550 1550 1550 1551 1551 1551 1552 1552 1552 1552 1552 1552 1552 1552
1519 1520 1519 1520 1521 1521 1522 1524 1525 1527 1528 1530 1532 1534 1536 1538 1540 1541 1543 1544 1545 1546 1547 1548 1549 1550 1550 1550 1551 1551 1551 1551 1551 1551 1551 1551 1551 1551 1552 1552 1552 1553 1553 1553 1553 1553 1553 1553 1554
1519 1519 1520 1520 1521 1522 1523 1525 1526 1529 1529 1531 1533 1535 1536 1538 1540 1542 1543 1544 1545 1546 1547 1549 1550 1550 1551 1551 1552 1552 1552 1552 1552 1552 1552 1552 1552 1553 1553 1553 1553 1554 1554 1554 1554 1554 1555 1555 1555
1519 1520 1521 1521 1520 1522 1523 1528 1527 1528 1529 1531 1533 1534 1536 1538 1540 1541 1543 1544 1545 1547 1548 1549 1550 1551 1552 1552 1553 1553 1553 1553 1553 1553 1553 1553 1553 1553 1554 1554 1555 1555 1555 1556 1556 1556 1556 1557 1557
1520 1525 1530 1523 1520 1521 1526 1534 1527 1527 1529 1531 1533 1534 1535 1538 1539 1541 1543 1544 1546 1547 1549 1550 1551 1552 1552 1553 1553 1554 1554 1554 1554 1554 1554 1554 1555 1555 1555 1555 1556 1556 1556 1557 1557 1558 1558 1558 1558
1527 1534 1532 1526 1519 1520 1525 1530 1525 1526 1528 1529 1531 1533 1535 1537 1539 1541 1543 1544 1546 1547 1549 1550 1551 1552 1552 1553 1554 1554 1554 1555 1555 1555 1555 1555 1556 1556 1556 1556 1557 1557 1558 1558 1558 1559 1559 1560 1560
1533 1532 1530 1527 1519 1520 1524 1525 1524 1525 1526 1528 1530 1532 1534 1536 1539 1541 1542 1544 1546 1548 1549 1550 1551 1552 1553 1553 1554 1555 1555 1556 1556 1556 1556 1556 1557 1557 1557 1557 1558 1558 1558 1559 1559 1560 1560 1561 1561
1523 1526 1527 1522 1516 1519 1523 1524 1523 1523 1525 1527 1529 1530 1532 1535 1538 1540 1542 1544 1546 1548 1549 1550 1551 1552 1553 1554 1554 1555 1555 1556 1557 1557 1557 1557 1557 1558 1558 1558 1558 1559 1559 1559 1560 1561 1561 1562 1562
1521 1525 1526 1520 1515 1518 1522 1522 1520 1520 1521 1523 1525 1528 1530 1533 1536 1539 1541 1543 1545 1547 1549 1550 1551 1552 1553 1554 1555 1555 1556 1557 1557 1558 1558 1558 1558 1558 1558 1559 1559 1559 1560 1560 1560 1561 1561 1562 1563
1520 1523 1524 1523 1519 1518 1523 1527 1523 1520 1520 1522 1523 1525 1528 1530 1533 1537 1540 1542 1544 1546 1548 1550 1551 1552 1553 1554 1555 1556 1556 1557 1558 1558 1559 1559 1559 1559 1559 1560 1560 1560 1560 1561 1561 1562 1562 1563 1564
1524 1516 1516 1519 1527 1532 1527 1541 1526 1520 1519 1519 1521 1523 1525 1528 1531 1534 1538 1541 1543 1545 1547 1549 1551 1552 1553 1554 1555 1556 1557 1557 1558 1559 1559 1560 1560 1560 1560 1560 1561 1561 1561 1561 1562 1562 1563 1563 1564
1517 1513 1515 1518 1525 1532 1529 1536 1529 1520 1520 1517 1517 1519 1522 1525 1528 1532 1535 1539 1542 1544 1546 1549 1551 1552 1553 1555 1555 1556 1557 1558 1559 1559 1560 1560 1561 1561 1561 1561 1561 1562 1562 1562 1563 1563 1563 1564 1564
1511 1515 1519 1525 1531 1541 1530 1534 1531 1520 1513 1510 1512 1515 1518 1522 1526 1530 1534 1537 1540 1543 1545 1548 1550 1552 1553 1554 1556 1557 1558 1558 1559 1560 1560 1561 1561 1562 1562 1562 1562 1563 1563 1563 1563 1564 1564 1564 1564
1514 1529 1543 1544 1548 1543 1525 1528 1523 1506 1501 1502 1505 1509 1514 1519 1523 1527 1531 1535 1538 1541 1544 1547 1549 1551 1553 1554 1556 1557 1558 1559 1560 1560 1561 1562 1562 1562 1563 1563 1563 1564 1564 1564 1564 1564 1564 1565 1565
1517 1526 1543 1550 1549 1540 1525 1527 1512 1498 1496 1498 1502 1506 1511 1516 1520 1524 1528 1532 1535 1539 1542 1545 1548 1550 1552 1554 1556 1557 1558 1559 1560 1561 1562 1562 1563 1563 1564 1564 1564 1565 1565 1565 1565 1565 1565 1565 1565
1516 1523 1523 1535 1535 1539 1531 1519 1506 1497 1498 1499 1502 1505 1509 1513 1517 1521 1525 1529 1533 1537 1541 1544 1546 1549 1551 1554 1555 1557 1558 1560 1561 1561 1562 1563 1563 1564 1564 1565 1565 1565 1566 1566 1566 1566 1566 1566 1566
1508 1514 1527 1534 1542 1544 1533 1523 1518 1506 1502 1501 1502 1504 1507 1510 1514 1518 1522 1527 1531 1535 1539 1542 1545 1548 1551 1553 1555 1557 1558 1560 1561 1562 1563 1563 1564 1565 1565 1566 1566 1566 1567 1567 1567 1567 1567 1567 1567
1511 1514 1521 1530 1534 1542 1542 1530 1503 1501 1499 1499 1500 1501 1504 1508 1511 1515 1520 1525 1529 1533 1537 1541 1544 1547 1550 1552 1554 1556 1558 1560 1561 1562 1563 1564 1565 1565 1566 1566 1567 1567 1568 1568 1568 1568 1568 1568 1568
1504 1509 1517 1531 1533 1533 1537 1528 1496 1496 1495 1496 1498 1500 1503 1506 1509 1513 1518 1522 1527 1531 1535 1538 1542 1545 1548 1551 1554 1556 1558 1560 1561 1562 1563 1564 1565 1566 1567 1567 1568 1568 1568 1569 1569 1569 1569 1569 1569